Torna al catalogo

KUIPER-00626

AttivoComunicazioniLEO
NORAD 69781·PAYLOAD·🇺🇸 United States

Lanciato Jul 2, 2026 da Cape Canaveral Space Force Station

Loading…

Prossimi Passaggi (prossime 24 ore)

TLE

AggiornatoSource: CelesTrak SupGP

Epoca: Sep 14, 2026, 13:26 UTC

1 69781C 26151U   26257.55979167  .00080927  00000+0  10594-1 0  2579
2 69781  51.8967 252.9429 0001057 107.0362 117.6276 14.79849635    11

Traccia KUIPER-00626 in tempo reale con AllMySat

Download on the App Store